Minneapolis Crystal, MN

5:48 AM CDT on October 21, 2017 (GMT -0500)
Crystal

Weather History for KMIC - May, 2013

Change the Weather History Date:

Thursday, May 9, 2013

  Actual Average Record
Temperature  
Mean Temperature 50 °F -  
Max Temperature 57 °F 64 °F 87 °F (2004)
Min Temperature 44 °F 43 °F 34 °F (1999)
Degree Days  
Heating Degree Days 14    
Moisture  
Dew Point 45 °F    
Average Humidity 77    
Maximum Humidity 90    
Minimum Humidity 53    
Precipitation  
Precipitation 0.05 in - - ()
Sea Level Pressure  
Sea Level Pressure 30.03 in    
Wind  
Wind Speed 10 mph (NNE)    
Max Wind Speed 20 mph    
Max Gust Speed 29 mph    
Visibility 10 miles    
Events Rain    
Averages and records for this station are not official NWS values.
T = Trace of Precipitation, MM = Missing Value Source: NWS Daily Summary

Daily Weather History Graph

Daily Weather History Graph

Search for Another Location

Airport or City:

Trip Planner

Search our weather history database for the weather conditions in past years. The results will help you decide how hot, cold, wet, or windy it might be!

Date:

Astronomy

May. 09, 2013 Rise Set
Actual Time 5:51 AM CDT 8:29 PM CDT
Civil Twilight 5:17 AM CDT 9:02 PM CDT
Nautical Twilight 4:35 AM CDT 9:45 PM CDT
Astronomical Twilight 3:47 AM CDT 10:34 PM CDT
Moon 5:37 AM CDT (5/9) 8:24 PM CDT (5/9)
Length of Visible Light 15h 45m
Length of Day
14h 38m
Waning Crescent, 0% of the Moon is Illuminated
May 9
Waning Crescent
May 9
New
May 17
First Quarter
May 24
Full
May 31
Last Quarter

Hourly Weather History & Observations

Time (CDT) Temp. Windchill Dew Point Humidity Pressure Visibility Wind Dir Wind Speed Gust Speed Precip Events Conditions
12:53 AM 57.9 °F - 54.0 °F 87% 29.98 in 10.0 mi NNE 5.8 mph - 0.00 in   Overcast
1:53 AM 57.9 °F - 53.1 °F 84% 29.96 in 10.0 mi NNE 6.9 mph - N/A   Overcast
2:53 AM 57.9 °F - 52.0 °F 81% 29.96 in 10.0 mi NNE 8.1 mph - N/A   Overcast
3:53 AM 57.9 °F - 52.0 °F 81% 29.96 in 10.0 mi NNE 4.6 mph - N/A   Clear
4:53 AM 57.9 °F - 51.1 °F 78% 29.96 in 10.0 mi NNE 6.9 mph - N/A   Mostly Cloudy
5:53 AM 57.9 °F - 52.0 °F 81% 29.96 in 10.0 mi NNE 8.1 mph - N/A   Overcast
7:53 AM 57.0 °F - 52.0 °F 83% 29.99 in 10.0 mi NNE 5.8 mph - N/A   Overcast
8:53 AM 57.0 °F - 52.0 °F 83% 29.99 in 10.0 mi NE 8.1 mph - N/A   Overcast
9:53 AM 57.0 °F - 52.0 °F 83% 29.99 in 10.0 mi NNE 6.9 mph - 0.01 in   Overcast
10:53 AM 57.9 °F - 51.1 °F 78% 30.00 in 10.0 mi NNE 10.4 mph - 0.00 in   Overcast
12:28 PM 53.6 °F - 48.2 °F 82% 30.03 in 7.0 mi North 11.5 mph 19.6 mph 0.00 in Rain Light Rain
12:37 PM 51.8 °F - 48.2 °F 88% 30.03 in 7.0 mi North 12.7 mph - 0.01 in Rain Light Rain
12:46 PM 51.8 °F - 48.2 °F 88% 30.03 in 6.0 mi NNE 15.0 mph 19.6 mph 0.01 in Rain Light Rain
12:53 PM 52.0 °F - 48.0 °F 86% 30.04 in 6.0 mi North 13.8 mph 20.7 mph 0.02 in Rain Light Rain
1:53 PM 48.9 °F - 46.0 °F 90% 30.04 in 10.0 mi NNE 18.4 mph 25.3 mph 0.02 in Rain Light Rain
2:48 PM 50.0 °F - 46.4 °F 87% 30.04 in 10.0 mi NNE 13.8 mph 23.0 mph 0.00 in Rain Light Rain
2:53 PM 50.0 °F - 46.0 °F 86% 30.05 in 10.0 mi NNE 16.1 mph 21.9 mph 0.00 in   Overcast
3:53 PM 50.0 °F - 44.1 °F 80% 30.05 in 10.0 mi NNE 15.0 mph 18.4 mph N/A   Overcast
4:26 PM 48.2 °F - 42.8 °F 82% 30.05 in 10.0 mi NE 13.8 mph 21.9 mph N/A   Overcast
4:53 PM 48.9 °F - 42.1 °F 77% 30.05 in 10.0 mi NNE 19.6 mph 28.8 mph N/A   Overcast
5:53 PM 48.9 °F - 39.9 °F 71% 30.06 in 10.0 mi NE 16.1 mph 26.5 mph N/A   Overcast
6:53 PM 48.0 °F - 37.9 °F 68% 30.07 in 10.0 mi NE 11.5 mph 18.4 mph N/A   Overcast
7:53 PM 46.9 °F - 36.0 °F 66% 30.09 in 10.0 mi NNE 13.8 mph 23.0 mph N/A   Overcast
9:13 PM 46.4 °F 41.5 °F 30.2 °F 53% 30.10 in 10.0 mi NNE 10.4 mph - N/A   Overcast
9:53 PM 45.0 °F 38.9 °F 30.9 °F 58% 30.12 in 10.0 mi North 12.7 mph - N/A   Mostly Cloudy
10:26 PM 44.6 °F 38.8 °F 28.4 °F 53% 30.10 in 10.0 mi NNE 11.5 mph - N/A   Mostly Cloudy
10:53 PM 44.1 °F 38.6 °F 28.0 °F 53% 30.12 in 10.0 mi NNE 10.4 mph - N/A   Clear